[[{"header":{"parameterUnit":"m.s-1","parameterCategory":1,"la1":30.2991,"la2":30.254,"lo1":-89.0895,"lo2":-89.0444,"dy":0.0017,"dx":0.0017,"nx":28,"ny":28,"refTime":"2025-05-23T21:00:00:Z","depth":0,"parameterNumber":2,"parameterNumberName":"U-component_of_WINDS"},"data":[0,0,0,0,0,0,0,0,0,0,0,0,0,0,0,0,0,0,0,0,0,0,0,0,0,0,0,0,0,0,0,0,0,0,0,0,0,0,0,0,0,0,0,0,0,0,0,0,0,0,0,0,0,0,0,0,0,0,1.7835,1.7836,0,1.7903,1.7903,1.7904,1.789,1.7889,1.7888,1.7886,1.7955,1.7958,1.7961,0,0,0,0,0,0,0,0,0,0,0,0,0,1.7691,1.7694,1.7835,1.7836,1.7837,1.7903,1.7903,1.7904,1.789,1.7889,1.7887,1.7886,1.7954,1.7958,1.7961,0,0,0,0,0,0,0,0,0,0,0,0,0,1.7756,1.7695,1.7835,1.7838,1.7838,1.7902,1.7904,1.7905,1.7891,1.7889,1.7887,1.7885,1.7953,1.7958,1.7962,1.8027,0,0,1.7976,1.7978,0,0,0,0,0,0,0,0,1.7752,1.7761,1.7836,1.7837,1.7839,1.7886,1.7878,1.7946,1.7891,1.7871,1.7886,1.7884,1.7934,1.794,1.7957,1.803,1.8033,1.7976,1.7979,1.7981,1.7982,0,0,0,0,0,0,0,1.7748,1.7758,1.7862,1.7837,1.7839,1.7835,1.7842,1.7891,1.7912,1.7872,1.7872,1.788,1.7934,1.7952,1.7958,1.8034,1.7976,1.798,1.7983,1.7984,1.8162,1.8164,0,0,0,0,0,0,1.7742,1.7754,1.786,1.7864,1.779,1.7839,1.7847,1.7873,1.7911,1.7915,1.7881,1.7879,1.7945,1.7953,1.796,1.8037,1.7981,1.7985,1.7988,1.816,1.8162,1.8165,0,0,0,0,0,0,1.7739,1.7752,1.7857,1.7809,1.7822,1.7843,1.7873,1.7875,1.7893,1.7918,1.7922,1.7896,1.7944,1.7954,1.801,1.8039,1.7987,1.7991,1.8158,1.8161,1.8163,1.8192,0,0,0,0,0,0,1.7735,1.7751,1.7777,1.781,1.7825,1.7906,1.7874,1.7878,1.7901,1.7898,1.7933,1.7937,1.7944,1.8003,1.8014,1.8044,1.7995,1.8155,1.8159,1.8163,1.8188,1.8195,1.8202,0,0,0,0,0,1.773,1.7782,1.7778,1.7791,1.7857,1.7908,1.7916,1.7923,1.7904,1.7929,1.7944,1.7936,1.8035,1.8009,1.8022,1.8053,1.8153,1.8158,1.8162,1.8185,1.8194,1.8201,0,0,0,0,0,0,1.7752,1.7787,1.7782,1.7847,1.7874,1.7905,1.7937,1.7932,1.7966,1.7962,1.7969,1.7977,1.8033,1.8049,1.802,1.8117,1.8091,1.8098,1.8104,1.8113,1.8119,1.8113,1.7998,0,0,0,0,0,1.7765,1.7804,1.7831,1.7885,1.79,1.7916,1.7939,1.7941,1.797,1.7982,1.8002,1.8029,1.8066,1.8091,1.8127,1.8191,1.8197,1.8219,1.8225,1.8231,1.8236,1.8269,1.8278,1.8179,1.8179,1.8179,0,0,1.7791,1.7814,1.7838,1.789,1.7912,1.7951,1.7926,1.7969,1.7997,1.7988,1.8041,1.8057,1.8089,1.8148,1.8176,1.8163,1.8265,1.8236,1.824,1.8243,1.8274,1.8284,1.8292,1.8183,1.8182,1.8182,0,0,1.7857,1.788,1.7926,1.7948,1.7981,1.7992,1.8003,1.8034,1.8044,1.8098,1.8091,1.8125,1.8189,1.8211,1.8231,1.8304,1.8296,1.8315,1.8349,1.8381,1.8388,1.8395,1.8419,1.8427,1.8321,1.8321,1.8321,0,1.7885,1.7944,1.7951,1.7993,1.8015,1.8009,1.8054,1.8076,1.8119,1.8134,1.8119,1.8198,1.8219,1.8283,1.83,1.8317,1.8329,1.831,1.8387,1.8394,1.84,1.8423,1.8432,1.8323,1.8323,1.8323,1.8322,0,1.7975,1.8016,1.8049,1.809,1.8116,1.816,1.8173,1.8198,1.8198,1.821,1.8263,1.8288,1.8328,1.8343,1.8345,1.8406,1.8397,1.8385,1.8359,1.8411,1.8432,1.8441,1.8326,1.8325,1.8324,1.8324,0,0,1.8057,1.81,1.8112,1.8129,1.8165,1.8196,1.8239,1.8277,1.8298,1.8328,1.8363,1.8417,1.8405,1.8427,1.843,1.8459,1.8511,1.8442,1.8443,1.8452,1.8578,1.8586,1.8596,1.8507,1.8509,1.8511,1.8575,0,1.8125,1.8201,1.8208,1.8276,1.8312,1.8305,1.8343,1.8368,1.8379,1.8411,1.8424,1.8461,1.8444,1.8457,1.8485,1.8499,1.8536,1.8495,1.8538,1.854,1.8528,1.8607,1.8616,1.8675,1.8583,1.8585,1.8586,0,1.8214,1.8245,1.8317,1.8345,1.836,1.8394,1.8428,1.8459,1.8487,1.8493,1.8517,1.8517,1.8559,1.8533,1.8591,1.8562,1.8581,1.859,1.8593,1.8595,1.8565,1.861,1.8695,1.8703,1.86,1.8598,1.8597,0,1.8264,1.8324,1.8374,1.8389,1.8424,1.8447,1.8462,1.8488,1.851,1.854,1.8554,1.8589,1.8608,1.8634,1.8642,1.8623,1.8699,1.8674,1.8704,1.8704,1.8719,1.8718,1.8806,1.8735,1.8735,1.8735,1.8734,0,1.8337,1.8381,1.8396,1.8426,1.8474,1.8481,1.8528,1.8542,1.8565,1.8597,1.8594,1.8624,1.8634,1.8665,1.8672,1.8718,1.8727,1.8732,1.8733,1.8731,1.873,1.8742,1.8737,1.8737,1.8737,1.8736,1.8736,0,1.84,1.8412,1.8466,1.8494,1.8502,1.8535,1.8559,1.8587,1.8598,1.8639,1.8649,1.8666,1.8703,1.8714,1.8758,1.8763,1.8815,1.8814,1.8806,1.8805,1.8834,1.883,1.8931,1.8944,1.8866,1.8867,1.8868,0,1.8445,1.8478,1.8509,1.853,1.8546,1.8581,1.8603,1.8611,1.8634,1.8666,1.8691,1.8727,1.8756,1.8815,1.8831,1.8864,1.8862,1.8895,1.8867,1.8863,1.8859,1.8856,1.8859,1.8899,1.89,1.8901,1.8901,0,1.8523,1.8527,1.8559,1.8592,1.8618,1.8645,1.8671,1.8688,1.87,1.8725,1.8762,1.8785,1.883,1.8865,1.8899,1.8914,1.8909,1.891,1.8919,1.8916,1.8909,1.8911,1.8818,1.8908,1.8907,1.8907,1.8906,1.8906,1.8576,1.8604,1.863,1.8665,1.8685,1.8709,1.8736,1.875,1.8782,1.8818,1.8821,1.8861,1.8886,1.893,1.8947,1.8978,1.8968,1.8981,1.8983,1.8986,1.8987,1.8906,1.8984,1.8984,1.8984,1.8984,1.8984,0,1.8652,1.8668,1.87,1.8735,1.8762,1.8756,1.8784,1.8807,1.8842,1.8866,1.8894,1.8936,1.8969,1.8988,1.9021,1.9042,1.904,1.905,1.9047,1.905,1.8995,1.8983,1.905,1.905,1.905,1.905,1.905,1.905,1.8694,1.874,1.8747,1.8802,1.8818,1.8857,1.8873,1.8894,1.8913,1.8959,1.8987,1.8999,1.902,1.9055,1.9085,1.9089,1.9101,1.9111,1.9114,1.9062,1.9055,1.9048,1.9037,1.9114,1.9114,1.9167,1.9167,1.9168]},{"header":{"parameterUnit":"m.s-1","parameterCategory":1,"la1":30.2991,"la2":30.254,"lo1":-89.0895,"lo2":-89.0444,"dy":0.0017,"dx":0.0017,"nx":28,"ny":28,"refTime":"2025-05-23T21:00:00:Z","depth":0,"parameterNumber":3,"parameterNumberName":"V-component_of_WINDS"},"data":[0,0,0,0,0,0,0,0,0,0,0,0,0,0,0,0,0,0,0,0,0,0,0,0,0,0,0,0,0,0,0,0,0,0,0,0,0,0,0,0,0,0,0,0,0,0,0,0,0,0,0,0,0,0,0,0,0,0,2.9248,2.9249,0,2.9335,2.9336,2.9337,2.9316,2.9314,2.9313,2.9311,2.9396,2.94,2.9404,0,0,0,0,0,0,0,0,0,0,0,0,0,2.9055,2.9059,2.9248,2.9249,2.925,2.9335,2.9337,2.9338,2.9316,2.9314,2.9312,2.931,2.9395,2.9399,2.9404,0,0,0,0,0,0,0,0,0,0,0,0,0,2.9141,2.906,2.9247,2.925,2.9251,2.9335,2.9337,2.9338,2.9317,2.9314,2.9312,2.9309,2.9393,2.9399,2.9405,2.9491,0,0,2.9422,2.9425,0,0,0,0,0,0,0,0,2.9136,2.9148,2.9248,2.925,2.9251,2.9312,2.93,2.9389,2.9317,2.9292,2.9311,2.9308,2.937,2.9378,2.9399,2.9495,2.9498,2.9423,2.9426,2.9429,2.943,0,0,0,0,0,0,0,2.913,2.9144,2.9282,2.925,2.9251,2.9244,2.9254,2.9317,2.9344,2.9294,2.9292,2.9303,2.937,2.9394,2.9401,2.95,2.9423,2.9428,2.9431,2.9434,2.9668,2.967,0,0,0,0,0,0,2.9124,2.9139,2.9279,2.9285,2.9186,2.925,2.926,2.9295,2.9343,2.9348,2.9305,2.9302,2.9385,2.9395,2.9404,2.9507,2.9429,2.9434,2.9437,2.9665,2.9668,2.9671,0,0,0,0,0,0,2.912,2.9136,2.9276,2.9212,2.9229,2.9256,2.9295,2.9298,2.9322,2.9352,2.9356,2.9325,2.9384,2.9396,2.9469,2.9509,2.9437,2.9442,2.9662,2.9666,2.967,2.9714,0,0,0,0,0,0,2.9114,2.9135,2.917,2.9213,2.9232,2.9342,2.9298,2.9302,2.9332,2.9329,2.9371,2.9376,2.9383,2.9461,2.9475,2.9516,2.9446,2.9658,2.9663,2.9668,2.9709,2.9719,2.9727,0,0,0,0,0,2.9107,2.9178,2.9172,2.9189,2.9277,2.9344,2.9355,2.9363,2.9336,2.937,2.9389,2.9375,2.9503,2.9468,2.9484,2.9528,2.9656,2.9662,2.9668,2.9705,2.9717,2.9727,0,0,0,0,0,0,2.9138,2.9184,2.9177,2.9264,2.93,2.934,2.9383,2.9376,2.9419,2.9414,2.942,2.943,2.9504,2.9523,2.9484,2.9612,2.9575,2.9585,2.9597,2.9609,2.9619,2.9612,2.9451,0,0,0,0,0,2.9155,2.9208,2.9244,2.9317,2.9336,2.9357,2.9386,2.9389,2.9426,2.9441,2.9465,2.95,2.9548,2.958,2.9626,2.9711,2.9719,2.9749,2.9758,2.9766,2.9774,2.9818,2.9831,2.9692,2.9692,2.9691,0,0,2.919,2.9222,2.9254,2.9324,2.9353,2.9405,2.937,2.9427,2.9465,2.9449,2.952,2.9539,2.9578,2.9658,2.9694,2.9676,2.9814,2.9773,2.9779,2.9783,2.9826,2.9839,2.9851,2.9696,2.9695,2.9694,0,0,2.9281,2.9311,2.9375,2.9404,2.9448,2.9461,2.9476,2.9517,2.9529,2.9601,2.9589,2.9634,2.9717,2.9745,2.977,2.987,2.9858,2.9885,2.9933,2.9977,2.9988,2.9998,3.0032,3.0044,2.9893,2.9893,2.9893,0,2.9319,2.94,2.9408,2.9466,2.9496,2.9485,2.9548,2.9575,2.9631,2.9651,2.9631,2.9734,2.976,2.9844,2.9869,2.989,2.9906,2.988,2.9986,2.9996,3.0005,3.0038,3.0051,2.9896,2.9895,2.9895,2.9895,0,2.9443,2.9499,2.9545,2.96,2.9635,2.9696,2.9711,2.9745,2.9744,2.9759,2.983,2.986,2.9912,2.9932,2.9931,3.0016,3.0004,2.9985,2.9947,3.0021,3.0052,3.0065,2.99,2.9899,2.9898,2.9897,0,0,2.9557,2.9616,2.9632,2.9656,2.9703,2.9746,2.9804,2.9856,2.9884,2.9922,2.997,3.004,3.0023,3.0051,3.0053,3.0091,3.0167,3.0067,3.0068,3.0084,3.026,3.0274,3.0288,3.0159,3.0162,3.0164,3.0256,0,2.9651,2.9757,2.9765,2.9859,2.9909,2.9899,2.9949,2.9982,2.9997,3.004,3.0055,3.0105,3.0078,3.0095,3.0133,3.015,3.0202,3.0143,3.0202,3.0204,3.0192,3.0305,3.032,3.0406,3.0269,3.0271,3.0272,0,2.9776,2.9819,2.9919,2.9957,2.9979,3.0025,3.0071,3.0113,3.015,3.0157,3.0189,3.0185,3.0243,3.0203,3.0282,3.0242,3.0266,3.0278,3.0281,3.0287,3.0242,3.0312,3.0434,3.0446,3.0291,3.029,3.0288,0,2.9847,2.993,3.0,3.0021,3.0068,3.01,3.0121,3.0155,3.0185,3.0225,3.0244,3.029,3.0315,3.0349,3.0357,3.0328,3.0435,3.0397,3.0441,3.0441,3.0464,3.0463,3.0591,3.0481,3.0481,3.0481,3.048,0,2.9952,3.0012,3.0033,3.0076,3.0143,3.015,3.0216,3.0234,3.0264,3.0309,3.0302,3.0343,3.0352,3.0394,3.0401,3.0464,3.0475,3.0482,3.0482,3.0482,3.0481,3.0498,3.0492,3.0484,3.0483,3.0483,3.0482,0,3.0043,3.0059,3.0134,3.0172,3.0183,3.0231,3.0262,3.0302,3.0316,3.0372,3.0386,3.0406,3.0456,3.0467,3.0526,3.053,3.0605,3.06,3.0593,3.0593,3.0636,3.0632,3.0779,3.0798,3.0677,3.0678,3.0679,0,3.0108,3.0155,3.0198,3.0228,3.0251,3.0299,3.033,3.0338,3.037,3.0414,3.0448,3.0497,3.0537,3.0616,3.0635,3.0679,3.0675,3.0724,3.0682,3.0679,3.0675,3.0672,3.0675,3.0731,3.0733,3.0734,3.0735,0,3.0222,3.0227,3.0272,3.032,3.0357,3.0394,3.043,3.0455,3.0467,3.0503,3.0555,3.0585,3.0646,3.0694,3.0738,3.0757,3.0747,3.0748,3.076,3.076,3.0754,3.0757,3.0614,3.0744,3.0743,3.0743,3.0742,3.0742,3.0301,3.0342,3.0378,3.0428,3.0456,3.0489,3.0529,3.0547,3.0591,3.0641,3.0643,3.0699,3.0731,3.079,3.0812,3.0854,3.0838,3.0857,3.0861,3.0866,3.0869,3.0748,3.0862,3.0861,3.0861,3.0861,3.0861,0,3.0414,3.0437,3.0483,3.0533,3.0572,3.0561,3.0599,3.0632,3.0682,3.0714,3.0753,3.0811,3.0857,3.088,3.0925,3.0954,3.0951,3.0966,3.0963,3.0967,3.0881,3.0865,3.0968,3.0967,3.0967,3.0967,3.0967,3.0967,3.0477,3.0544,3.0554,3.0634,3.0656,3.0712,3.0734,3.0764,3.079,3.0856,3.0895,3.0909,3.0937,3.0984,3.1025,3.103,3.1046,3.1063,3.1066,3.0985,3.0974,3.0963,3.0948,3.1067,3.1067,3.1149,3.115,3.115]}]]